User: anonymous   Login
Location: Unspecified
(0.0000°N, 0.0000°E)
Time: 00:10:23
(UTC+00:00)
Language:

USA 247 - Orbit

View from above orbital plane
View from above orbital plane
View from above satellite
View from above satellite

Ground track
Ground track

The orbit data is extracted from the following two-line orbital elements,

1 39462U 13072A   17265.15281831 0.00000000  00000-0  00000-0 0    00
2 39462 122.9987 206.2221 0003000 145.9685 214.0315 13.41419731    00
Epoch (UTC): 22 September 2017 03:40:03
Eccentricity: 0.0003000
inclination: 122.9987°
perigee height: 1102 km
apogee height: 1106 km
right ascension of ascending node: 206.2221°
argument of perigee: 145.9685°
revolutions per day: 13.41419731
mean anomaly at epoch: 214.0315°
orbit number at epoch: 0

The dashed part of the orbit path shows where the satellite is in the earth's shadow,  

DLR